User: anonymous   Login
Location: Caltech
(34.1382°N, 118.1253°W)
Time: 13:27:17
(UTC-08:00)
Language:

Uribyol 2 - Orbit

View from above orbital plane
View from above orbital plane
View from above satellite
View from above satellite

Ground track
Ground track

The orbit data is extracted from the following two-line orbital elements,

1 22828U 93061F   14350.91377658  .00000382  00000-0  16405-3 0  7844
2 22828 098.6725 295.6448 0011053 086.8508 273.3938 14.30410268 75369
Epoch (UTC): 16 December 2014 21:55:50
Eccentricity: 0.0011053
inclination: 98.6725°
perigee height: 782 km
apogee height: 798 km
right ascension of ascending node: 295.6448°
argument of perigee: 86.8508°
revolutions per day: 14.30410268
mean anomaly at epoch: 273.3938°
orbit number at epoch: 7536

The dashed part of the orbit path shows where the satellite is in the earth's shadow,  

DLR